Terminal Aerodrome Forecast
Issued by NWS Caribou, ME

Home | Current Version | Previous Version | Text Only | Print | Product List | Glossary On
Versions: 1 2 3 4 5 6 7 8 9 10 11 12 13 14 15 16 17 18 19 20 21
000
FTUS41 KCAR 181234 AAA
TAFBGR
TAF AMD
KBGR 181234Z 1813/1912 35009G16KT 2SM -SN BR OVC008
     FM181400 33012G20KT 4SM -SHSN BR OVC016
     FM181800 32010G18KT 6SM -SHSN OVC028
     FM190000 31008KT P6SM BKN045=

USA.gov is the U.S. government's official web portal to all federal, state and local government web resources and services.